Weather History for CYUS - January, 2013

Change the Weather History Date:

Monday, January 28, 2013

  Actual Average Record
Temperature  
Mean Temperature -16 °F -  
Max Temperature -12 °F - - ()
Min Temperature -19 °F - - ()
Degree Days  
Heating Degree Days 80    
Moisture  
Dew Point -    
Average Humidity    
Maximum Humidity    
Minimum Humidity    
Precipitation  
Precipitation 0.00 in - - ()
Sea Level Pressure  
Sea Level Pressure 30.03 in    
Wind  
Wind Speed 9 mph ()    
Max Wind Speed 13 mph    
Max Gust Speed -    
Visibility 8.2 miles    
Events      
T = Trace of Precipitation, MM = Missing Value Source: Averaged Metar Reports

Daily Weather History Graph

Daily Weather History Graph

Search for Another Location

Airport or City:

Trip Planner

Search our weather history database for the weather conditions in past years. The results will help you decide how hot, cold, wet, or windy it might be!

Date:

Astronomy

Jan. 28, 2013 Rise Set
Actual Time 9:58 AM CST 2:56 PM CST
Civil Twilight 8:36 AM CST 4:18 PM CST
Nautical Twilight 7:21 AM CST 5:33 PM CST
Astronomical Twilight 6:13 AM CST 6:41 PM CST
Moon 6:35 PM CST (1/28) 8:52 AM CST (1/28)
Length of Visible Light 7h 41m
Length of Day
4h 57m
Full, 98% of the Moon is Illuminated
Jan 28
Full
Feb 3
Last Quarter
Feb 10
New
Feb 17
First Quarter
Feb 25
Full

Hourly Weather History & Observations

Time (CST) Temp. Windchill Dew Point Humidity Pressure Visibility Wind Dir Wind Speed Gust Speed Precip Events Conditions
12:00 AM -12 °F - - % 30.00 in 7 mi West 11.5 mph - -  
12:00 AM -13.0 °F -32.4 °F - N/A% 30.00 in 8.0 mi West 10.4 mph - N/A   Unknown
1:00 AM -13.0 °F -34.3 °F - N/A% 30.00 in 7.0 mi WNW 12.7 mph - N/A   Unknown
2:00 AM -13.0 °F -34.3 °F - N/A% 30.01 in 6.0 mi WNW 12.7 mph - N/A   Unknown
3:00 AM -14 °F - - % 30.01 in 7 mi NW 11.5 mph - -  
4:00 AM -14.8 °F -34.6 °F - N/A% 30.01 in 9.0 mi NW 10.4 mph - N/A   Unknown
5:00 AM -14.8 °F -34.6 °F - N/A% 30.02 in 9.0 mi WNW 10.4 mph - N/A   Unknown
6:00 AM -15 °F - - % 30.03 in 9 mi WNW 12.7 mph - -  
7:00 AM -16.6 °F -37.9 °F - N/A% 30.03 in 9.0 mi WNW 11.5 mph - N/A   Unknown
8:00 AM -16.6 °F -35.7 °F - N/A% 30.04 in 9.0 mi WNW 9.2 mph - N/A   Unknown
9:00 AM -17 °F - - % 30.04 in 9 mi WNW 10.4 mph - -  
9:00 AM -16.6 °F -35.7 °F - N/A% 30.04 in 9.0 mi WNW 9.2 mph - N/A   Unknown
10:00 AM -16.6 °F -36.8 °F - N/A% 30.04 in 9.0 mi WNW 10.4 mph - N/A   Unknown
11:00 AM -18.4 °F -39.1 °F - N/A% 30.04 in 9.0 mi WNW 10.4 mph - N/A   Unknown
12:00 PM -18 °F - - % 30.04 in 9 mi WNW 9.2 mph - -  
12:00 PM -18.4 °F -37.9 °F - N/A% 30.04 in 9.0 mi WNW 9.2 mph - N/A   Unknown
12:54 PM -18.4 °F -39.1 °F - N/A% 30.02 in 4.0 mi WNW 10.4 mph - N/A   Unknown
1:00 PM -18.4 °F -39.1 °F - N/A% 30.05 in 3.5 mi WNW 10.4 mph - N/A   Unknown
1:08 PM -18.4 °F -39.1 °F - N/A% 30.02 in 3.5 mi WNW 10.4 mph - N/A   Unknown
2:00 PM -18.4 °F -39.1 °F - N/A% 30.05 in 9.0 mi West 10.4 mph - N/A   Unknown
3:00 PM -19 °F - - % 30.04 in 9 mi West 5.8 mph - -  
3:00 PM -18.4 °F -33.4 °F - N/A% 30.04 in 9.0 mi West 5.8 mph - N/A   Unknown
4:00 PM -18.4 °F -35.1 °F - N/A% 30.05 in 9.0 mi West 6.9 mph - N/A   Unknown
5:00 PM -18.4 °F -36.6 °F - N/A% 30.05 in 9.0 mi West 8.1 mph - N/A   Unknown
6:00 PM -18 °F - - % 30.04 in 9 mi West 8.1 mph - -  
6:00 PM -18.4 °F -36.6 °F - N/A% 30.04 in 9.0 mi West 8.1 mph - N/A   Unknown
7:00 PM -18.4 °F -37.9 °F - N/A% 30.04 in 9.0 mi West 9.2 mph - N/A   Unknown
8:00 PM -18.4 °F -36.6 °F - N/A% 30.04 in 9.0 mi West 8.1 mph - N/A   Unknown
9:00 PM -17 °F - - % 30.04 in 9 mi West 8.1 mph - -  
9:00 PM -16.6 °F -34.4 °F - N/A% 30.04 in 9.0 mi West 8.1 mph - N/A   Unknown
10:00 PM -16.6 °F -32.9 °F - N/A% 30.03 in 9.0 mi West 6.9 mph - N/A   Unknown
11:00 PM -16.6 °F -35.7 °F - N/A% 30.02 in 9.0 mi West 9.2 mph - N/A   Unknown